Miscellaneous Local Product
Issued by NWS Hastings, NE

Home | Current Version | Previous Version | Graphics & Text | Print | Product List | Glossary On
Versions: 1 2 3 4 5 6 7 8 9 10 11 12 13 14 15 16 17 18 19 20 21 22 23 24 25 26 27 28 29 30 31 32 33 34 35 36 37 38 39 40 41 42 43 44 45 46 47 48 49 50
000
AXUS43 KGID 172002
MISGRI

GID CWA HOURLY WEATHER ROUNDUP
NATIONAL WEATHER SERVICE HASTINGS NE
200 PM CST TUE JAN 17 2017

NOTE: "FAIR" INDICATES FEW OR NO CLOUDS BELOW 12,000 FEET WITH NO
SIGNIFICANT WEATHER AND/OR OBSTRUCTIONS TO VISIBILITY.

...SOUTH CENTRAL NEBRASKA...

CITY           SKY/WX    TMP DP  RH WIND       PRES   REMARKS
GRAND ISLAND   SUNNY     36  33  89 W7        30.05F WCI  30
HASTINGS       SUNNY     36  31  82 W7        30.06F WCI  30
KEARNEY        SUNNY     39  30  70 CALM      30.05F
ORD            SUNNY     36  28  73 SW5       30.01F WCI  32
YORK           MIX PCPN  32  32 100 MISG      30.06F
AURORA         SUNNY     35  32  90 CALM      30.05F
LEXINGTON      SUNNY     42  31  64 NW3       30.04F
HOLDREGE       SUNNY     40  33  75 W7        30.05F
HEBRON         SUNNY     35  31  87 W6        30.08F WCI  30

...NEBRASKA PANHANDLE...

CITY           SKY/WX    TMP DP  RH WIND       PRES   REMARKS
CHADRON        CLOUDY   N/A N/A N/A CALM      29.95F
ALLIANCE       SUNNY     43  13  29 W17       29.96F
SCOTTSBLUFF    SUNNY     43  21  41 NW7       29.97F
SIDNEY         SUNNY     43  26  51 SW14      29.99F

...WESTERN AND NORTH CENTRAL NEBRASKA...

CITY           SKY/WX    TMP DP  RH WIND       PRES   REMARKS
VALENTINE      SUNNY     51  11  20 SW13      29.95F
AINSWORTH      SUNNY     48  24  38 SW10      29.97F
ONEILL         SUNNY     42  33  72 SW6       30.00F
BROKEN BOW     SUNNY     39  29  67 SW5       30.01F
IMPERIAL       SUNNY     42  25  50 W7        30.03F
NORTH PLATTE   SUNNY     43  27  53 W8        30.03F
MCCOOK         SUNNY     43  28  55 W9        30.05F

...EASTERN NEBRASKA...

CITY           SKY/WX    TMP DP  RH WIND       PRES   REMARKS
NORFOLK        SUNNY     32  27  81 VRB7      30.03F WCI  26
SO SIOUX CITY  SUNNY     33  25  72 W6        30.05F WCI  28
TEKAMAH        MOSUNNY   32  26  78 W5        30.06F WCI  27
COLUMBUS       SUNNY     34  28  80 CALM      30.06F
ALBION         SUNNY     34  30  85 W3        30.03F FOG
OMAHA EPPLEY   CLOUDY    31  26  82 W9        30.07S FOG     WCI  23
OFFUTT AFB     CLOUDY    31  31 100 W8        30.07R WCI  24
MILLARD        PTSUNNY   35  29  80 W7        30.08S WCI  29
LINCOLN        SUNNY     36  29  75 W9        30.09S WCI  29
NEBRASKA CITY  CLOUDY    33  33  99 W6        30.08R WCI  27
BEATRICE       MOSUNNY   35  31  84 W8        30.08S WCI  29
FALLS CITY     CLOUDY    36  33  89 W9        30.09S WCI  29

...NORTHERN KANSAS...

CITY           SKY/WX    TMP DP  RH WIND       PRES   REMARKS
GOODLAND       SUNNY     43  29  57 SW9       30.04F
HILL CITY      SUNNY     46  30  53 W9        30.08F
NORTON         CLEAR     43  27  52 W10       30.05F
PHILLIPSBURG   SUNNY     43  32  65 W8        30.08S
SMITH CENTER   MOSUNNY   39  30  70 W6        30.08S WCI  35
HAYS           SUNNY     44  30  57 W9        30.10F
RUSSELL        SUNNY     42  33  70 W8        30.08F
CONCORDIA      SUNNY     38  31  76 SW9       30.09F WCI  31
SALINA         SUNNY     45  30  55 W6        30.12F
TOPEKA         CLOUDY    42  34  73 W5        30.10F



USA.gov is the U.S. government's official web portal to all federal, state and local government web resources and services.